weather.gov     
National Weather Service

Regional Weather Roundup
NWS Homepage
This page is being discontinued on March 12, 2014.
The same data is available at this site. Please update your bookmarks.
Thank you, and we apologize for the inconvenience.
Please send an email to SR-SRH.Webmaster@noaa.gov with any concerns.


Current Version
Previous Version:    01  02  03  04  05  06  07  08  09  10  11  12  13  14  15  16  17  18  19  20  21  22  23  24  25  26  27  28  29  30  
   31  32  33  34  35  36  37  38  39  40  41  42  43  44  45  46  47  48  49  50  51  52  53  
[Printable]
420
ASUS44 KOUN 290510
RWROK

WEATHER ROUNDUP FOR OKLAHOMA
NATIONAL WEATHER SERVICE NORMAN OK
1200 AM CDT FRI AUG 29 2014

NOTE: "FAIR" INDICATES FEW OR NO CLOUDS BELOW 12,000 FEET WITH NO
      SIGNIFICANT WEATHER AND/OR OBSTRUCTIONS TO VISIBILITY.

OKZ001>007-009>012-014-015-017-290600-
NORTHWEST OKLAHOMA AND THE PANHANDLE

CITY           SKY/WX    TMP DP  RH WIND       PRES   REMARKS
GAGE           CLOUDY    69  63  81 S13       29.94F
ENID/WOODRING  CLOUDY    72  68  88 E6        29.90F
$$

OKZ016-021>023-033>039-044-045-290600-
SOUTHWEST OKLAHOMA

CITY           SKY/WX    TMP DP  RH WIND       PRES   REMARKS
LAWTON/REGL    RAIN      70  67  90 SE15      29.95F
LAWTON/FT SILL LGT RAIN  68  66  95 E10       29.95F
FREDERICK      LGT RAIN  68  66  93 SE16      29.92R
CLINTON        CLOUDY   N/A N/A N/A SE21      29.96S
HOBART         CLOUDY    69  63  81 CALM      29.98R
ALTUS AFB        N/A     67  67  99 E12       29.95R
$$

OKZ018>020-024>031-290600-
CENTRAL OKLAHOMA

CITY           SKY/WX    TMP DP  RH WIND       PRES   REMARKS
OKLAHOMA CITY  LGT RAIN  71  63  75 SW10      29.94F
OKC/WILEY POST CLOUDY    71  64  78 SW13      29.93F
OKC/TINKER AFB CLOUDY    74  61  64 SW10      29.93F
STILLWATER     CLOUDY    71  69  93 CALM      29.92S
GUTHRIE        CLOUDY    73  67  81 W9        29.91F
$$

OKZ008-013-054>072-290600-
NORTHEAST OKLAHOMA

CITY           SKY/WX    TMP DP  RH WIND       PRES   REMARKS
TULSA          PTCLDY    81  66  60 SE5       29.88F
TULSA/JONES    PTCLDY    76  67  73 CALM      29.89S
PONCA CITY     CLOUDY    71  68  90 SE8       29.90S
BARTLESVILLE   MOCLDY    76  62  62 VRB5      29.93R
MUSKOGEE       CLEAR     75  67  76 S5        29.91F
$$

OKZ032-040>043-046>053-073>077-290600-
SOUTH CENTRAL/SOUTHEAST OKLAHOMA

CITY           SKY/WX    TMP DP  RH WIND       PRES   REMARKS
ARDMORE/DWNTWN LGT RAIN  72  64  78 W6G18     29.99R
MCALESTER      CLEAR     79  68  69 SE5       29.92S
$$





U.S. Dept. of Commerce
NOAA National Weather Service
1325 East West Highway
Silver Spring, MD 20910
E-mail: w-nws.webmaster@noaa.gov
Page last modified: May 16, 2007
NATIONAL WEATHER SERVICE: for Safety, for Work, for Fun - FOR LIFE